Time,TemperatureF,DewpointF,PressureIn,WindDirection,WindDirectionDegrees,WindSpeedMPH,WindSpeedGustMPH,Humidity,HourlyPrecipIn,Conditions,Clouds,dailyrainin,SoftwareType,DateUTC
2013-08-04 00:06:00,56.9,53.0,30.00,WNW,302,6.0,13.0,88,0.00,,,0.00,weatherlink.com 1.10,2013-08-04 04:06:00,
2013-08-04 00:22:00,56.9,53.0,30.00,WNW,296,7.0,13.0,88,0.00,,,0.00,weatherlink.com 1.10,2013-08-04 04:22:00,
2013-08-04 00:37:00,57.0,54.0,30.01,WNW,298,5.0,12.0,88,0.00,,,0.00,weatherlink.com 1.10,2013-08-04 04:37:00,
2013-08-04 00:52:00,56.8,54.0,30.01,NW,306,10.0,13.0,89,0.00,,,0.00,weatherlink.com 1.10,2013-08-04 04:52:00,
2013-08-04 01:07:00,56.5,53.0,30.01,WNW,291,6.0,11.0,89,0.00,,,0.00,weatherlink.com 1.10,2013-08-04 05:07:00,
2013-08-04 01:22:00,56.6,54.0,30.01,WNW,292,5.0,10.0,90,0.00,,,0.00,weatherlink.com 1.10,2013-08-04 05:22:00,
2013-08-04 01:37:00,56.5,54.0,30.02,WNW,297,5.0,9.0,91,0.00,,,0.00,weatherlink.com 1.10,2013-08-04 05:37:00,
2013-08-04 01:52:00,57.7,55.0,30.02,WNW,302,10.0,14.0,89,0.00,,,0.00,weatherlink.com 1.10,2013-08-04 05:52:00,
2013-08-04 02:07:00,57.7,55.0,30.02,West,269,8.0,13.0,89,0.00,,,0.00,weatherlink.com 1.10,2013-08-04 06:07:00,
2013-08-04 02:22:00,57.6,54.0,30.02,WNW,302,9.0,13.0,89,0.00,,,0.00,weatherlink.com 1.10,2013-08-04 06:22:00,
2013-08-04 02:37:00,57.7,55.0,30.03,NNW,329,7.0,14.0,89,0.00,,,0.00,weatherlink.com 1.10,2013-08-04 06:37:00,
2013-08-04 02:52:00,57.6,54.0,30.03,NW,306,9.0,13.0,89,0.00,,,0.00,weatherlink.com 1.10,2013-08-04 06:52:00,
2013-08-04 03:07:00,57.6,55.0,30.03,WNW,297,6.0,12.0,90,0.00,,,0.00,weatherlink.com 1.10,2013-08-04 07:07:00,
2013-08-04 03:22:00,57.4,55.0,30.04,WNW,303,12.0,13.0,90,0.00,,,0.00,weatherlink.com 1.10,2013-08-04 07:22:00,
2013-08-04 03:37:00,57.5,55.0,30.04,WNW,298,7.0,13.0,90,0.00,,,0.00,weatherlink.com 1.10,2013-08-04 07:37:00,
2013-08-04 03:52:00,57.2,54.0,30.05,West,261,6.0,11.0,90,0.00,,,0.00,weatherlink.com 1.10,2013-08-04 07:52:00,
2013-08-04 04:07:00,57.4,55.0,30.05,WNW,300,10.0,12.0,90,0.00,,,0.00,weatherlink.com 1.10,2013-08-04 08:07:00,
2013-08-04 04:22:00,57.6,54.0,30.05,WNW,303,8.0,14.0,89,0.00,,,0.00,weatherlink.com 1.10,2013-08-04 08:22:00,
2013-08-04 04:37:00,57.7,55.0,30.06,NW,314,7.0,13.0,89,0.00,,,0.00,weatherlink.com 1.10,2013-08-04 08:37:00,
2013-08-04 04:52:00,57.5,54.0,30.07,NW,315,8.0,12.0,88,0.00,,,0.00,weatherlink.com 1.10,2013-08-04 08:52:00,
2013-08-04 05:07:00,57.6,54.0,30.07,WNW,298,9.0,13.0,87,0.00,,,0.00,weatherlink.com 1.10,2013-08-04 09:07:00,
2013-08-04 05:22:00,57.3,54.0,30.07,WNW,284,8.0,11.0,87,0.00,,,0.00,weatherlink.com 1.10,2013-08-04 09:22:00,
2013-08-04 05:37:00,57.2,53.0,30.07,NW,326,6.0,10.0,87,0.00,,,0.00,weatherlink.com 1.10,2013-08-04 09:37:00,
2013-08-04 05:52:00,57.8,53.0,30.07,NW,311,11.0,13.0,83,0.00,,,0.00,weatherlink.com 1.10,2013-08-04 09:52:00,
2013-08-04 06:07:00,57.6,52.0,30.08,NNW,343,8.0,14.0,81,0.00,,,0.00,weatherlink.com 1.10,2013-08-04 10:07:00,
2013-08-04 06:23:00,57.3,52.0,30.09,NNW,346,9.0,15.0,81,0.00,,,0.00,weatherlink.com 1.10,2013-08-04 10:23:00,
2013-08-04 06:38:00,57.1,51.0,30.09,NW,316,10.0,13.0,81,0.00,,,0.00,weatherlink.com 1.10,2013-08-04 10:38:00,
2013-08-04 06:53:00,57.1,51.0,30.10,NNW,340,10.0,15.0,79,0.00,,,0.00,weatherlink.com 1.10,2013-08-04 10:53:00,
2013-08-04 07:08:00,56.9,50.0,30.10,NNW,339,10.0,15.0,79,0.00,,,0.00,weatherlink.com 1.10,2013-08-04 11:08:00,
2013-08-04 07:22:00,57.0,51.0,30.10,NNW,336,10.0,14.0,80,0.00,,,0.00,weatherlink.com 1.10,2013-08-04 11:22:00,
2013-08-04 07:38:00,57.0,51.0,30.11,NW,316,11.0,13.0,80,0.00,,,0.00,weatherlink.com 1.10,2013-08-04 11:38:00,
2013-08-04 07:53:00,57.1,51.0,30.11,North,9,11.0,14.0,79,0.00,,,0.00,weatherlink.com 1.10,2013-08-04 11:53:00,
2013-08-04 08:08:00,57.2,51.0,30.12,NW,322,10.0,12.0,80,0.00,,,0.00,weatherlink.com 1.10,2013-08-04 12:08:00,
2013-08-04 08:23:00,57.2,51.0,30.12,WNW,288,10.0,12.0,80,0.00,,,0.00,weatherlink.com 1.10,2013-08-04 12:23:00,
2013-08-04 08:38:00,57.2,51.0,30.12,NW,313,6.0,13.0,81,0.00,,,0.00,weatherlink.com 1.10,2013-08-04 12:38:00,
2013-08-04 08:53:00,57.1,51.0,30.12,NW,325,11.0,14.0,81,0.00,,,0.00,weatherlink.com 1.10,2013-08-04 12:53:00,
2013-08-04 09:08:00,57.7,51.0,30.13,NW,306,9.0,11.0,79,0.00,,,0.00,weatherlink.com 1.10,2013-08-04 13:08:00,
2013-08-04 09:23:00,58.0,51.0,30.13,WNW,296,7.0,13.0,78,0.00,,,0.00,weatherlink.com 1.10,2013-08-04 13:23:00,
2013-08-04 09:38:00,58.3,52.0,30.13,WNW,295,9.0,14.0,80,0.00,,,0.00,weatherlink.com 1.10,2013-08-04 13:38:00,
2013-08-04 09:53:00,58.7,52.0,30.13,NW,311,10.0,15.0,79,0.00,,,0.00,weatherlink.com 1.10,2013-08-04 13:53:00,
2013-08-04 10:08:00,58.7,52.0,30.12,WNW,290,11.0,14.0,78,0.00,,,0.00,weatherlink.com 1.10,2013-08-04 14:08:00,
2013-08-04 10:23:00,59.2,52.0,30.12,West,277,10.0,14.0,78,0.00,,,0.00,weatherlink.com 1.10,2013-08-04 14:23:00,
2013-08-04 10:38:00,59.8,52.0,30.12,WNW,288,11.0,14.0,76,0.00,,,0.00,weatherlink.com 1.10,2013-08-04 14:38:00,
2013-08-04 10:53:00,60.4,53.0,30.12,NW,309,6.0,14.0,76,0.00,,,0.00,weatherlink.com 1.10,2013-08-04 14:53:00,
2013-08-04 11:08:00,60.8,52.0,30.13,WNW,292,11.0,14.0,74,0.00,,,0.00,weatherlink.com 1.10,2013-08-04 15:08:00,
2013-08-04 11:23:00,61.4,52.0,30.13,WNW,294,6.0,13.0,72,0.00,,,0.00,weatherlink.com 1.10,2013-08-04 15:23:00,
2013-08-04 11:38:00,62.2,53.0,30.13,West,265,9.0,14.0,71,0.00,,,0.00,weatherlink.com 1.10,2013-08-04 15:38:00,
2013-08-04 11:53:00,62.6,52.0,30.13,WNW,282,8.0,15.0,69,0.00,,,0.00,weatherlink.com 1.10,2013-08-04 15:53:00,
2013-08-04 12:08:00,63.4,51.0,30.13,NW,317,7.0,17.0,65,0.00,,,0.00,weatherlink.com 1.10,2013-08-04 16:08:00,
2013-08-04 12:23:00,64.1,53.0,30.13,NW,309,9.0,15.0,67,0.00,,,0.00,weatherlink.com 1.10,2013-08-04 16:23:00,
2013-08-04 12:38:00,64.7,53.0,30.12,WNW,291,13.0,18.0,67,0.00,,,0.00,weatherlink.com 1.10,2013-08-04 16:38:00,
2013-08-04 12:53:00,65.6,53.0,30.12,West,281,14.0,18.0,64,0.00,,,0.00,weatherlink.com 1.10,2013-08-04 16:53:00,
2013-08-04 13:08:00,66.0,53.0,30.12,NNW,335,12.0,20.0,63,0.00,,,0.00,weatherlink.com 1.10,2013-08-04 17:08:00,
2013-08-04 13:23:00,66.6,54.0,30.11,NW,304,12.0,19.0,64,0.00,,,0.00,weatherlink.com 1.10,2013-08-04 17:23:00,
2013-08-04 13:38:00,67.0,54.0,30.11,WNW,301,10.0,18.0,64,0.00,,,0.00,weatherlink.com 1.10,2013-08-04 17:38:00,
2013-08-04 13:53:00,67.2,53.0,30.11,NW,317,10.0,20.0,61,0.00,,,0.00,weatherlink.com 1.10,2013-08-04 17:53:00,
2013-08-04 14:08:00,67.4,53.0,30.10,NW,325,16.0,19.0,60,0.00,,,0.00,weatherlink.com 1.10,2013-08-04 18:08:00,
2013-08-04 14:23:00,67.6,52.0,30.10,WNW,301,10.0,23.0,57,0.00,,,0.00,weatherlink.com 1.10,2013-08-04 18:23:00,
2013-08-04 14:38:00,67.3,52.0,30.10,NW,318,8.0,19.0,59,0.00,,,0.00,weatherlink.com 1.10,2013-08-04 18:38:00,
2013-08-04 14:53:00,67.1,53.0,30.09,West,281,10.0,22.0,61,0.00,,,0.00,weatherlink.com 1.10,2013-08-04 18:53:00,
2013-08-04 15:08:00,67.1,53.0,30.09,WNW,300,15.0,23.0,60,0.00,,,0.00,weatherlink.com 1.10,2013-08-04 19:08:00,
2013-08-04 15:23:00,67.4,53.0,30.09,NW,304,12.0,20.0,60,0.00,,,0.00,weatherlink.com 1.10,2013-08-04 19:23:00,
2013-08-04 15:38:00,68.0,52.0,30.09,WNW,300,16.0,21.0,58,0.00,,,0.00,weatherlink.com 1.10,2013-08-04 19:38:00,
2013-08-04 15:53:00,67.6,54.0,30.08,NW,317,16.0,22.0,61,0.00,,,0.00,weatherlink.com 1.10,2013-08-04 19:53:00,
2013-08-04 16:08:00,67.7,52.0,30.08,West,279,15.0,23.0,57,0.00,,,0.00,weatherlink.com 1.10,2013-08-04 20:08:00,
2013-08-04 16:23:00,67.8,51.0,30.07,WNW,300,15.0,22.0,56,0.00,,,0.00,weatherlink.com 1.10,2013-08-04 20:23:00,
2013-08-04 16:38:00,67.9,52.0,30.07,WNW,294,9.0,21.0,58,0.00,,,0.00,weatherlink.com 1.10,2013-08-04 20:38:00,
2013-08-04 16:53:00,68.2,53.0,30.07,West,276,16.0,22.0,58,0.00,,,0.00,weatherlink.com 1.10,2013-08-04 20:53:00,
2013-08-04 17:08:00,68.2,52.0,30.07,NW,306,8.0,18.0,56,0.00,,,0.00,weatherlink.com 1.10,2013-08-04 21:08:00,
2013-08-04 17:23:00,68.3,52.0,30.07,WNW,299,11.0,22.0,56,0.00,,,0.00,weatherlink.com 1.10,2013-08-04 21:23:00,
2013-08-04 17:38:00,67.8,51.0,30.07,NW,309,13.0,22.0,56,0.00,,,0.00,weatherlink.com 1.10,2013-08-04 21:38:00,
2013-08-04 17:53:00,67.6,51.0,30.07,West,265,11.0,25.0,55,0.00,,,0.00,weatherlink.com 1.10,2013-08-04 21:53:00,
2013-08-04 18:08:00,67.5,51.0,30.07,WNW,288,17.0,21.0,56,0.00,,,0.00,weatherlink.com 1.10,2013-08-04 22:08:00,
2013-08-04 18:24:00,67.2,51.0,30.07,West,280,15.0,22.0,57,0.00,,,0.00,weatherlink.com 1.10,2013-08-04 22:24:00,
2013-08-04 18:39:00,66.9,51.0,30.07,NW,325,14.0,20.0,58,0.00,,,0.00,weatherlink.com 1.10,2013-08-04 22:39:00,
2013-08-04 18:54:00,66.6,52.0,30.07,West,265,12.0,19.0,60,0.00,,,0.00,weatherlink.com 1.10,2013-08-04 22:54:00,
2013-08-04 19:09:00,66.3,51.0,30.07,WNW,287,12.0,19.0,58,0.00,,,0.00,weatherlink.com 1.10,2013-08-04 23:09:00,
2013-08-04 19:24:00,65.8,50.0,30.07,WNW,284,14.0,18.0,58,0.00,,,0.00,weatherlink.com 1.10,2013-08-04 23:24:00,
2013-08-04 19:38:00,65.4,51.0,30.07,West,274,11.0,16.0,61,0.00,,,0.00,weatherlink.com 1.10,2013-08-04 23:38:00,
2013-08-04 19:53:00,64.8,51.0,30.07,WNW,301,16.0,18.0,62,0.00,,,0.00,weatherlink.com 1.10,2013-08-04 23:53:00,
2013-08-04 20:09:00,64.4,51.0,30.07,West,259,8.0,15.0,63,0.00,,,0.00,weatherlink.com 1.10,2013-08-05 00:09:00,
2013-08-04 20:24:00,63.8,51.0,30.07,West,280,7.0,18.0,63,0.00,,,0.00,weatherlink.com 1.10,2013-08-05 00:24:00,
2013-08-04 20:39:00,62.9,51.0,30.07,WNW,285,7.0,15.0,65,0.00,,,0.00,weatherlink.com 1.10,2013-08-05 00:39:00,
2013-08-04 20:54:00,62.4,51.0,30.07,West,266,10.0,11.0,66,0.00,,,0.00,weatherlink.com 1.10,2013-08-05 00:54:00,
2013-08-04 21:09:00,61.8,51.0,30.07,WNW,292,9.0,13.0,67,0.00,,,0.00,weatherlink.com 1.10,2013-08-05 01:09:00,
2013-08-04 21:24:00,61.2,50.0,30.07,West,259,4.0,10.0,67,0.00,,,0.00,weatherlink.com 1.10,2013-08-05 01:24:00,
2013-08-04 21:39:00,60.9,50.0,30.07,West,272,6.0,11.0,68,0.00,,,0.00,weatherlink.com 1.10,2013-08-05 01:39:00,
2013-08-04 21:54:00,60.8,50.0,30.07,WNW,298,9.0,10.0,68,0.00,,,0.00,weatherlink.com 1.10,2013-08-05 01:54:00,
2013-08-04 22:09:00,60.4,50.0,30.07,WNW,287,6.0,9.0,69,0.00,,,0.00,weatherlink.com 1.10,2013-08-05 02:09:00,
2013-08-04 22:24:00,59.8,50.0,30.07,West,271,4.0,8.0,71,0.00,,,0.00,weatherlink.com 1.10,2013-08-05 02:24:00,
2013-08-04 22:39:00,59.0,50.0,30.07,WSW,254,4.0,8.0,72,0.00,,,0.00,weatherlink.com 1.10,2013-08-05 02:39:00,
2013-08-04 22:54:00,58.5,50.0,30.07,WSW,254,4.0,7.0,73,0.00,,,0.00,weatherlink.com 1.10,2013-08-05 02:54:00,
2013-08-04 23:09:00,57.8,50.0,30.07,West,270,3.0,6.0,75,0.00,,,0.00,weatherlink.com 1.10,2013-08-05 03:09:00,
2013-08-04 23:24:00,57.2,50.0,30.07,WSW,247,2.0,5.0,76,0.00,,,0.00,weatherlink.com 1.10,2013-08-05 03:24:00,
2013-08-04 23:39:00,56.7,50.0,30.07,SW,234,0.0,5.0,78,0.00,,,0.00,weatherlink.com 1.10,2013-08-05 03:39:00,
2013-08-04 23:54:00,55.5,49.0,30.07,SW,220,1.0,4.0,80,0.00,,,0.00,weatherlink.com 1.10,2013-08-05 03:54:00,